Location: Azul
(36.7830°S, 59.8500°W)
Time: 00:10:04
(UTC-03:00)

XW-2F - Pass Details

Date: 24 October 2021
Orbit: 497 x 515 km, 97.5° (Epoch: 27 November)

Event Time Altitude Azimuth Distance (km) Brightness Sun altitude
Rises 20:16:21 0° 191° (SSW) 2,671 ? -10.6°
Reaches altitude 10° 20:19:27 10° 219° (SW) 1,768 ? -11.1°
Maximum altitude 20:21:13 13° 247° (WSW) 1,579 ? -11.4°
Drops below altitude 10° 20:22:59 10° 275° (W) 1,752 ? -11.8°
Sets 20:26:02 0° 303° (WNW) 2,622 ? -12.3°
